sat.trackr.live / text

‹ back to catalog

STARLINK-37556

NORAD 69660 · 2026-143M

PAYLOAD ACTIVE UNKNOWN

§ Identity

Operator
Country
US
Launch date
2026-06-21
Launch site
AFWTR
Launch vehicle
Mass (kg)
RCS (m²)

Purposes: comms

External: N2YO · Heavens-Above · Gunter

§ Orbital elements

Epoch: 2026-09-19T08:45:52.586208Z

Period
93.91 min
Inclination
97.2816°
Eccentricity
0.0001242
Mean motion
15.33428090 rev/d
Perigee alt
464.7 km
Apogee alt
466.4 km
Semi-major
6,843.7 km
B*
3.3784e-4
RAAN
305.4947°
Arg perigee
76.5475°
Mean anomaly
283.5906°
Rev number
1,497

§ Raw data

STARLINK-375561 69660U 26143M   26262.36519197  .00010842  00000+0  33784-3 0  99942 69660  97.2816 305.4947 0001242  76.5475 283.5906 15.33428090 14976

JSON: /api/v1/satellites/69660 · /tle

For live sub-satellite position, see the globe view (requires WebGL).

§ Visibility from observer

Set your observer location to see the next 7 days of passes ≥ 10°. The values pass through the URL so the page stays shareable.

No JS? Fill the form by hand. The geolocation button needs JavaScript.